Location: Geçitköy
(36.7327°N, 29.8010°E)
Time: 20:00:29
(UTC+00:00)

RESURS DK-1 - Pass Details

Date: 12 January 2026
Orbit: 525 x 531 km, 69.9° (Epoch: 11 February)

Event Time Altitude Azimuth Distance (km) Brightness Sun altitude
Rises 17:22:44 0° 218° (SW) 2,658 6.4 -27.0°
Reaches altitude 10° 17:24:58 10° 225° (SW) 1,774 5.5 -27.5°
Enters shadow 17:28:00 37° 268° (W) 835 3.7 -28.1°
